Location: Quedlinburg
(51.7921°N, 11.1414°E)
Time: 04:38:45
(UTC+02:00)

STRAND 1 - Pass Details

Date: 22 March 2026
Orbit: 761 x 775 km, 98.4° (Epoch: 16 April)

Event Time Altitude Azimuth Distance (km) Brightness Sun altitude
Rises 05:06:55 0° 166° (SSE) 3,232 ? -11.0°
Reaches altitude 10° 05:09:13 10° 167° (SSE) 2,308 ? -10.7°
Maximum altitude 05:14:18 81° 255° (WSW) 784 ? -9.9°
Drops below altitude 10° 05:19:26 10° 343° (NNW) 2,316 ? -9.2°
Sets 05:21:45 0° 345° (NNW) 3,244 ? -8.8°
